Home > Weather > Maldonado > Past weeks

Flag for Uruguay Past Weather in Maldonado, Uruguay — Yesterday and Last 2 Weeks

Now
52 °F

Thunderstorms. Mostly cloudy.


Feels Like: 47 °F
Forecast: 50 / 61 °F
Wind: 14 mph from Southeast

Location: Capitan Corbeta

Current Time: Aug 27, 2016 at 12:29:11 PM

Latest Report: Aug 27, 2016 at 12:00 PM


Visibility: 1 mi

Pressure: 29.89 "Hg

Humidity: 100%

Dew Point: 52 °F

Location of MaldonadoLocation

Past Weather in Maldonado — Graph

°F

Maldonado Temperature Yesterday

Maximum temperature yesterday: 77 °F (at 1:00 PM)
Minimum temperature yesterday: 52 °F (at 7:00 AM)
Average temperature yesterday: 61 °F

High & Low Weather Summary for the Past Weeks

 TemperatureHumidityPressure
High77 °F (Aug 26, 1:00 PM)100% (Aug 25, 8:00 AM)30.42 "Hg (Aug 25, 8:00 AM)
Low39 °F (Aug 21, 9:00 PM)30% (Aug 18, 2:00 PM)29.65 "Hg (Aug 15, 3:00 PM)
Average55 °F71%30.00 "Hg
* Reported Aug 12 11:00 AM — Aug 27 11:00 AM, Maldonado, Weather by CustomWeather, © 2016

Note: Actual official high and low records may vary slightly from our data, if they occured in-between our weather recording intervals... More about our weather records

Advertising

Maldonado Weather History for the Previous 24 Hours

Scroll right to see more
 ConditionsComfort  
Time TempWeatherWind HumidityBarometerVisibility
11:00 AM
Sat, Aug 27
54 °FThunderstorms. Mostly cloudy.12 mph100%29.86 "Hg1 mi
10:00 AM55 °FThunderstorms. Mostly cloudy.10 mph100%29.89 "Hg1 mi
9:00 AM54 °FThunderstorms. Mostly cloudy.12 mph100%29.89 "Hg1 mi
8:00 AM55 °FStrong thunderstorms. Mostly cloudy.17 mph100%29.92 "Hg1 mi
7:00 AM57 °FStrong thunderstorms. Overcast.18 mph94%29.89 "Hg1 mi
6:00 AM63 °FStrong thunderstorms. Overcast.23 mph94%29.83 "Hg1 mi
5:00 AM66 °FStrong thunderstorms. Overcast.15 mph94%29.80 "Hg3 mi
4:00 AM72 °FThunderstorms. Overcast.7 mph94%29.80 "Hg4 mi
2:00 AM59 °FThunderstorms. Overcast.5 mph94%29.80 "Hg6 mi
1:00 AM59 °FClear.3 mph94%29.83 "Hg10 mi
12:00 AM61 °FClear.3 mph88%29.83 "Hg10 mi
11:00 PM
Fri, Aug 26
61 °FClear.6 mph88%29.83 "Hg10 mi
10:00 PM61 °FClear.5 mph88%29.83 "Hg10 mi
9:00 PM59 °FClear.2 mph88%29.80 "Hg10 mi
8:00 PM61 °FClear.5 mph88%29.80 "Hg10 mi
7:00 PM63 °FClear.2 mph77%29.80 "Hg10 mi
6:00 PM63 °FClear.2 mph77%29.80 "Hg10 mi
4:00 PM70 °FSunny.8 mph69%29.80 "Hg10 mi
3:00 PM72 °FSunny.9 mph65%29.80 "Hg10 mi
1:00 PM77 °FSunny.6 mph54%29.83 "Hg10 mi
12:00 PM70 °FSunny.5 mph64%29.89 "Hg10 mi
Weather by CustomWeather, © 2016

See weather overviewHow to use our weather pages